When you browse on this site, cookies collect data to enhance your experience and personalize the content and advertising you see.
Visit our Privacy Policy to learn more. By continuing to use the site, you agree to this use of cookies and data.
  • In Hungary
  • List of Countries
  • For 7 days
  • Water Temperature
  • Weather Map
  • News
  • Weather Widgets
  • user-avatar
    Login

    Hourly Weather Bobolice

    Today, 8 December, Sunday

    Time Temperature Precipitation Wind Pressure Humidity
    00:00 +5°C° 0.1 mm 5 mps 743 mmHg 87%
    01:00 +5°C° 0 mm 5 mps 743 mmHg 86%
    02:00 +5°C° 0.1 mm 5 mps 743 mmHg 88%
    03:00 +4°C° 0.1 mm 4 mps 743 mmHg 89%
    04:00 +4°C° 0.1 mm 4 mps 742 mmHg 91%
    05:00 +4°C° 0.1 mm 4 mps 742 mmHg 90%
    06:00 +3°C° 0.1 mm 5 mps 742 mmHg 89%
    07:00 +3°C° 0 mm 6 mps 742 mmHg 86%
    08:00 +4°C° 0 mm 6 mps 741 mmHg 85%
    09:00 +4°C° 0 mm 7 mps 740 mmHg 84%
    10:00 +4°C° 0 mm 7 mps 740 mmHg 83%
    11:00 +4°C° 0 mm 7 mps 739 mmHg 81%
    12:00 +5°C° 0 mm 8 mps 738 mmHg 80%
    13:00 +5°C° 0 mm 7 mps 737 mmHg 78%
    14:00 +5°C° 0.4 mm 8 mps 737 mmHg 80%
    15:00 +5°C° 0.4 mm 8 mps 736 mmHg 83%
    16:00 +6°C° 0.4 mm 8 mps 735 mmHg 86%
    17:00 +6°C° 0.3 mm 8 mps 735 mmHg 85%
    18:00 +6°C° 0.3 mm 8 mps 735 mmHg 84%
    19:00 +6°C° 0.3 mm 8 mps 735 mmHg 82%
    20:00 +6°C° 0.2 mm 7 mps 735 mmHg 82%
    21:00 +6°C° 0.2 mm 7 mps 735 mmHg 82%
    22:00 +7°C° 0.2 mm 6 mps 735 mmHg 81%
    23:00 +7°C° 0.1 mm 6 mps 735 mmHg 82%

    Tomorrow, 9 December, Monday

    Time Temperature Precipitation Wind Pressure Humidity
    00:00 +5°C° 0.1 mm 6 mps 735 mmHg 83%
    01:00 +5°C° 0.1 mm 5 mps 735 mmHg 84%
    02:00 +5°C° 0 mm 5 mps 735 mmHg 84%
    03:00 +5°C° 0 mm 5 mps 735 mmHg 84%
    04:00 +3°C° 0 mm 6 mps 735 mmHg 84%
    05:00 +3°C° 0.1 mm 6 mps 735 mmHg 84%
    06:00 +3°C° 0.1 mm 5 mps 736 mmHg 83%
    07:00 +5°C° 0.1 mm 5 mps 736 mmHg 82%
    08:00 +4°C° 0 mm 6 mps 736 mmHg 81%
    09:00 +3°C° 0 mm 6 mps 736 mmHg 80%
    10:00 +3°C° 0 mm 6 mps 737 mmHg 79%
    11:00 +4°C° 0 mm 6 mps 737 mmHg 77%
    12:00 +4°C° 0 mm 6 mps 737 mmHg 74%
    13:00 +4°C° 0 mm 6 mps 737 mmHg 72%
    14:00 +5°C° 0 mm 5 mps 737 mmHg 74%
    15:00 +5°C° 0 mm 5 mps 737 mmHg 76%
    16:00 +4°C° 0 mm 4 mps 737 mmHg 78%
    17:00 +4°C° 0 mm 4 mps 738 mmHg 79%
    18:00 +4°C° 0 mm 4 mps 738 mmHg 81%
    19:00 +3°C° 0 mm 5 mps 738 mmHg 82%
    20:00 +3°C° 0 mm 5 mps 739 mmHg 83%
    21:00 +3°C° 0 mm 5 mps 739 mmHg 84%
    22:00 +3°C° 0 mm 5 mps 739 mmHg 85%
    23:00 +4°C° 0.3 mm 4 mps 739 mmHg 83%

    Day after tomorrow, 10 December, Tuesday

    Time Temperature Precipitation Wind Pressure Humidity
    00:00 +4°C° 0.3 mm 4 mps 739 mmHg 81%
    01:00 +3°C° 0.3 mm 4 mps 740 mmHg 79%
    02:00 +1°C° 0 mm 5 mps 740 mmHg 80%
    03:00 +1°C° 0 mm 5 mps 740 mmHg 82%
    04:00 0°C° 0 mm 5 mps 740 mmHg 83%
    05:00 0°C° 0.4 mm 5 mps 741 mmHg 86%
    06:00 0°C° 0.4 mm 5 mps 742 mmHg 90%
    07:00 +1°C° 0.4 mm 4 mps 743 mmHg 94%
    08:00 +1°C° 0.2 mm 5 mps 744 mmHg 92%
    09:00 +1°C° 0.2 mm 5 mps 746 mmHg 91%
    10:00 +2°C° 0.2 mm 6 mps 747 mmHg 89%
    11:00 +1°C° 0.2 mm 6 mps 748 mmHg 88%
    12:00 +1°C° 0.2 mm 6 mps 749 mmHg 87%
    13:00 +1°C° 0.2 mm 6 mps 750 mmHg 86%
    14:00 0°C° 0 mm 5 mps 751 mmHg 83%
    15:00 0°C° 0 mm 4 mps 752 mmHg 80%
    16:00 +1°C° 0 mm 3 mps 752 mmHg 76%
    17:00 +1°C° 0 mm 2 mps 753 mmHg 77%
    18:00 +1°C° 0 mm 2 mps 753 mmHg 78%
    19:00 +1°C° 0 mm 1 mps 754 mmHg 79%
    20:00 +1°C° 0 mm 1 mps 754 mmHg 79%
    21:00 +1°C° 0 mm 1 mps 754 mmHg 79%
    22:00 0°C° 0 mm 1 mps 754 mmHg 79%
    23:00 -2°C° 0 mm 2 mps 754 mmHg 79%

    11 December, Wednesday

    Time Temperature Precipitation Wind Pressure Humidity
    00:00 -2°C° 0 mm 2 mps 754 mmHg 79%
    01:00 -2°C° 0 mm 3 mps 753 mmHg 78%
    02:00 -2°C° 0 mm 3 mps 753 mmHg 75%
    03:00 -3°C° 0 mm 4 mps 752 mmHg 72%
    04:00 -3°C° 0 mm 4 mps 751 mmHg 68%
    05:00 -2°C° 0 mm 5 mps 751 mmHg 65%
    06:00 -2°C° 0 mm 5 mps 750 mmHg 62%
    07:00 -2°C° 0 mm 5 mps 750 mmHg 59%
    08:00 -3°C° 0 mm 6 mps 749 mmHg 58%
    09:00 -2°C° 0 mm 6 mps 749 mmHg 57%
    10:00 -2°C° 0 mm 6 mps 749 mmHg 57%
    11:00 -2°C° 0 mm 6 mps 748 mmHg 55%
    12:00 -2°C° 0 mm 6 mps 748 mmHg 53%
    13:00 -1°C° 0 mm 6 mps 747 mmHg 51%
    14:00 -2°C° 0 mm 6 mps 747 mmHg 51%
    15:00 -1°C° 0 mm 5 mps 746 mmHg 51%
    16:00 -1°C° 0 mm 5 mps 745 mmHg 52%
    17:00 -1°C° 0 mm 5 mps 745 mmHg 56%
    18:00 -2°C° 0 mm 6 mps 744 mmHg 60%
    19:00 -2°C° 0 mm 6 mps 744 mmHg 64%
    20:00 -2°C° 0.1 mm 6 mps 743 mmHg 66%
    21:00 -2°C° 0.1 mm 6 mps 743 mmHg 67%
    22:00 -2°C° 0.1 mm 6 mps 742 mmHg 68%
    23:00 -2°C° 0 mm 6 mps 742 mmHg 67%

    12 December, Thursday

    Time Temperature Precipitation Wind Pressure Humidity
    00:00 -2°C° 0 mm 6 mps 741 mmHg 66%
    01:00 -3°C° 0 mm 6 mps 740 mmHg 65%
    02:00 -2°C° 0.1 mm 5 mps 740 mmHg 74%
    03:00 -2°C° 0.1 mm 5 mps 739 mmHg 84%
    04:00 -4°C° 0.1 mm 5 mps 738 mmHg 94%
    05:00 -1°C° 0.2 mm 5 mps 738 mmHg 94%
    06:00 0°C° 0.2 mm 5 mps 739 mmHg 95%
    07:00 +1°C° 0.2 mm 5 mps 739 mmHg 95%
    08:00 +1°C° 0.1 mm 5 mps 739 mmHg 93%
    09:00 +1°C° 0.1 mm 5 mps 740 mmHg 92%
    10:00 +1°C° 0.1 mm 5 mps 740 mmHg 90%
    11:00 +1°C° 0 mm 5 mps 741 mmHg 87%
    12:00 +1°C° 0 mm 5 mps 741 mmHg 84%
    13:00 +1°C° 0 mm 5 mps 741 mmHg 82%
    14:00 +1°C° 0 mm 4 mps 741 mmHg 85%
    15:00 0°C° 0 mm 4 mps 741 mmHg 87%
    16:00 0°C° 0 mm 4 mps 741 mmHg 90%
    17:00 0°C° 0 mm 4 mps 741 mmHg 91%
    18:00 0°C° 0 mm 4 mps 741 mmHg 93%
    19:00 0°C° 0 mm 5 mps 741 mmHg 94%
    20:00 0°C° 0.1 mm 4 mps 741 mmHg 93%
    21:00 0°C° 0.1 mm 4 mps 740 mmHg 92%
    22:00 0°C° 0.1 mm 4 mps 740 mmHg 91%
    23:00 -1°C° 0 mm 4 mps 739 mmHg 90%

    13 December, Friday

    Time Temperature Precipitation Wind Pressure Humidity
    00:00 -1°C° 0 mm 4 mps 738 mmHg 90%
    01:00 -2°C° 0 mm 4 mps 738 mmHg 89%
    02:00 -2°C° 0 mm 5 mps 736 mmHg 87%
    03:00 -3°C° 0 mm 6 mps 735 mmHg 84%
    04:00 -3°C° 0 mm 6 mps 734 mmHg 81%
    05:00 -3°C° 0 mm 7 mps 733 mmHg 78%
    06:00 -4°C° 0 mm 8 mps 732 mmHg 75%
    07:00 -4°C° 0 mm 8 mps 730 mmHg 72%
    08:00 -4°C° 0.1 mm 8 mps 730 mmHg 77%
    09:00 -4°C° 0.1 mm 9 mps 729 mmHg 81%
    10:00 -4°C° 0.1 mm 9 mps 729 mmHg 86%
    11:00 -4°C° 0.5 mm 8 mps 728 mmHg 88%
    12:00 -3°C° 0.5 mm 7 mps 728 mmHg 90%
    13:00 -2°C° 0.5 mm 7 mps 727 mmHg 91%
    14:00 -2°C° 0 mm 6 mps 727 mmHg 91%
    15:00 -1°C° 0 mm 5 mps 727 mmHg 91%
    16:00 0°C° 0 mm 5 mps 727 mmHg 91%
    17:00 -1°C° 0 mm 5 mps 727 mmHg 90%
    18:00 -1°C° 0 mm 5 mps 727 mmHg 90%
    19:00 -1°C° 0 mm 5 mps 727 mmHg 89%
    20:00 -1°C° 0.1 mm 5 mps 727 mmHg 91%
    21:00 -2°C° 0.1 mm 6 mps 726 mmHg 93%
    22:00 -2°C° 0.1 mm 7 mps 726 mmHg 95%
    23:00 -2°C° 1.2 mm 7 mps 725 mmHg 95%
    Show more